DELTA 1 DEB, 3127

Orbit data source: Space-Track

DELTA 1 DEB, 3127 is space debris in LEO originally from a launch on Thu, 11 Jan 1968 UTC launched from the Air Force Western Test Range (AFWTR). Debris objects in space refer to the collection of defunct objects orbiting the Earth. Examples of debris include non-operational satellites, rocket bodies, and fragments generated from explosions, collisions, or faulty payload assembly.

Loading next visibility...
Identifier
3127, 1968-002D
Orbit
LEO
Last TLE update
3 days ago
Origin
Manufacturer
Unknown
Mission
Spacecraft
Bus & Motor
Unknown
Mass
Unknown
Launch date (UTC)
1968-01-11 (57 years ago)
Launch vehicle
Unknown
Launch site
Air Force Western Test Range (AFWTR)
Object type
Payload
Rocket body
Debris
Shape & HBR
Unknown
Radar Cross Section
Small (<0.1 m²)

Expand to show TLE details & history

TLE from 3 days ago
0 DELTA 1 DEB
1 03127U 68002D   25126.45581211 -.00000029  00000-0  15006-3 0  9999
2 03127 105.3341 121.8756 0321662 268.8897 255.4175 12.84866745686729
Epoch: 2025-05-06T10:56Z
Definitive object data (Epoch: 2025-05-06T10:56:22.166Z)
Latitude
18.5123°
Longitude
-81.52961°
Altitude
1,393.654 km
Speed
7.132 km/s
True Right ascension
20h 28m 28s
True Declination
18° 25' 03"
Sunlit
Object was in daylight at TLE epoch
Visualization TLE readout
Latitude
-23.70472°
Longitude
103.98151°
Altitude
1,244.569 km
Speed
7.272 km/s
Apparent Right ascension
06h 38m 07s
Apparent Declination
-38° 34' 42"
Sunlit
Object is in daylight
Visualization observer readout
Local Sidereal Time
15:13:41
Azimuth
254.974° W
Elevation
-50.949°
Doppler factor
1
Orbital elements
Apogee altitude
1,567.317 km
Perigee altitude
1,072.096 km
Semi-major axis
7,697.843 km
Eccentricity
0.0321662
Inclination
105.3341°
RAAN
121.8756°
Arg. of periapsis
268.8897°
True anomaly
251.88826°
Mean anomaly
255.4175°
Eccentric anomaly
253.64905°
Mean motion
3.21358 °/min
BSTAR
0.00015006
Orbital period
112.02 mins
Loading maneuver chart data...
Loading SW <> Apogee altitude chart data...
Loading historical data...
Loading historical data...
Loading historical data...
Loading historical data...
Loading historical data...
Loading historical data...
Loading historical data...

DELTA 1 DEB Visibility forecast

Observer location: undefined°, undefined°

Span
Click to sort rows by Start time (UTC) header in descending order
Start Az.
Max El. time (UTC)
Max El. Az.
Max El.
End time (UTC)
End Az.
12 mins2025-05-09 11:36:45.417Z46.021° ENE2025-05-09 11:42:45.417Z95.183° ESE25.552°2025-05-09 11:48:45.417Z150.963° SSE
15 mins2025-05-09 13:25:45.417Z15.606° NNE2025-05-09 13:32:45.417Z311.5° NW42.403°2025-05-09 13:40:45.417Z218.468° SW
9 mins2025-05-09 15:16:45.417Z350.202° N2025-05-09 15:20:45.417Z320.293° NNW17.294°2025-05-09 15:25:45.417Z282.257° WNW
4 mins2025-05-09 20:35:45.417Z44.404° NE2025-05-09 20:36:45.417Z37.303° NE12.31°2025-05-09 20:39:45.417Z16.593° NNE
14 mins2025-05-09 22:17:45.417Z121.277° SE2025-05-09 22:24:45.417Z48.641° ENE35.312°2025-05-09 22:31:45.417Z350.468° N
14 mins2025-05-10 00:07:45.417Z189.974° SSW2025-05-10 00:13:45.417Z257.259° W36.142°2025-05-10 00:21:45.417Z326.487° NNW
|